Weather History for Chicago DuPage, IL

Change the Weather History Date:

Sunday, April 28, 2013

  Actual Average Record
Temperature  
Mean Temperature 59 °F 54 °F  
Max Temperature 68 °F 66 °F 80 °F (2004)
Min Temperature 49 °F 42 °F 28 °F (1998)
Degree Days  
Heating Degree Days 6 12  
Month to date heating degree days 550 454  
Since 1 July heating degree days 6334 6045  
Cooling Degree Days 0 0  
Month to date cooling degree days 0 0  
Year to date cooling degree days 0 0  
Growing Degree Days 8 (Base 50)    
Moisture  
Dew Point 51 °F    
Average Humidity 82    
Maximum Humidity 100    
Minimum Humidity 56    
Precipitation  
Precipitation 0.04 in 0.16 in 0.56 in (2014)
Month to date precipitation 6.31 3.02  
Year to date precipitation 13.27 8.11  
Sea Level Pressure  
Sea Level Pressure 29.89 in    
Wind  
Wind Speed 3 mph (NE)    
Max Wind Speed 9 mph    
Max Gust Speed 12 mph    
Visibility 6 miles    
Events Rain    
T = Trace of Precipitation, MM = Missing Value Source: NWS Daily Summary

Daily Weather History Graph

Daily Weather History Graph

Search for Another Location

Airport:

Trip Planner

Search our weather history database for the weather conditions in past years. The results will help you decide how hot, cold, wet, or windy it might be!

Date:

Astronomy

Apr. 28, 2013 Rise Set
Actual Time 5:52 AM CDT 7:48 PM CDT
Civil Twilight 5:22 AM CDT 8:18 PM CDT
Nautical Twilight 4:46 AM CDT 8:55 PM CDT
Astronomical Twilight 4:06 AM CDT 9:35 PM CDT
Moon 11:20 PM CDT (4/28) 8:07 AM CDT (4/28)
Length of Visible Light 14h 55m
Length of Day
13h 55m
Waning Gibbous, 88% of the Moon is Illuminated
Apr 28
Waning Gibbous
May 2
Last Quarter
May 9
New
May 17
First Quarter
May 24
Full

Hourly Weather History & Observations

Time (CDT) Temp. Dew Point Humidity Pressure Visibility Wind Dir Wind Speed Gust Speed Precip Events Conditions
12:52 AM 55.0 °F 42.1 °F 62% 29.99 in 10.0 mi East 5.8 mph - N/A   Overcast
1:52 AM 54.0 °F 46.0 °F 75% 29.97 in 10.0 mi Calm Calm - 0.00 in Rain Light Rain
2:52 AM 53.1 °F 48.0 °F 83% 29.95 in 6.0 mi East 3.5 mph - 0.01 in Rain Light Rain
3:52 AM 52.0 °F 48.9 °F 89% 29.93 in 6.0 mi Calm Calm - 0.02 in Rain Light Rain
4:52 AM 51.1 °F 48.9 °F 92% 29.91 in 4.0 mi NE 3.5 mph - 0.01 in Rain Light Rain
5:52 AM 52.0 °F 50.0 °F 93% 29.91 in 3.0 mi NNE 3.5 mph - 0.00 in   Overcast
6:08 AM 51.8 °F 50.0 °F 94% 29.91 in 3.0 mi NNW 3.5 mph - N/A   Overcast
6:34 AM 51.8 °F 51.8 °F 100% 29.92 in 1.8 mi North 3.5 mph - N/A   Overcast
6:52 AM 52.0 °F 51.1 °F 97% 29.91 in 1.8 mi NNE 3.5 mph - 0.00 in Rain Light Rain
7:19 AM 53.6 °F 51.8 °F 94% 29.91 in 1.8 mi North 4.6 mph - 0.00 in   Overcast
7:29 AM 53.6 °F 51.8 °F 94% 29.91 in 2.0 mi North 3.5 mph - 0.00 in   Overcast
7:52 AM 54.0 °F 52.0 °F 93% 29.90 in 2.5 mi NE 3.5 mph - 0.00 in   Overcast
8:07 AM 55.4 °F 51.8 °F 88% 29.90 in 3.0 mi ENE 4.6 mph - N/A   Overcast
8:45 AM 55.4 °F 51.8 °F 88% 29.91 in 5.0 mi NNE 4.6 mph - N/A   Overcast
8:52 AM 55.9 °F 52.0 °F 87% 29.90 in 5.0 mi NE 4.6 mph - N/A   Overcast
9:05 AM 55.4 °F 51.8 °F 88% 29.90 in - ENE 5.8 mph - N/A   Unknown
9:37 AM 55.4 °F 51.8 °F 88% 29.91 in 6.0 mi ENE 4.6 mph - N/A   Overcast
9:52 AM 55.9 °F 52.0 °F 87% 29.90 in 6.0 mi NNE 4.6 mph - N/A   Overcast
10:44 AM 55.4 °F 51.8 °F 88% 29.90 in 7.0 mi ENE 4.6 mph - N/A   Overcast
10:52 AM 55.9 °F 51.1 °F 84% 29.91 in 8.0 mi ENE 4.6 mph - N/A   Overcast
11:09 AM 57.2 °F 51.8 °F 82% 29.90 in 8.0 mi NE 4.6 mph - N/A   Overcast
11:52 AM 57.0 °F 50.0 °F 77% 29.90 in 9.0 mi NE 3.5 mph - N/A   Overcast
12:36 PM 57.2 °F 51.8 °F 82% 29.89 in 6.0 mi NNW 4.6 mph - N/A   Haze
12:52 PM 59.0 °F 52.0 °F 78% 29.88 in 8.0 mi NW 5.8 mph - N/A   Overcast
1:52 PM 63.0 °F 51.1 °F 65% 29.86 in 10.0 mi Calm Calm - N/A   Scattered Clouds
2:52 PM 64.9 °F 51.1 °F 61% 29.85 in 10.0 mi Calm Calm - N/A   Overcast
3:52 PM 66.0 °F 50.0 °F 56% 29.83 in 10.0 mi NW 3.5 mph - N/A   Scattered Clouds
4:52 PM 64.9 °F 50.0 °F 58% 29.82 in 10.0 mi Calm Calm - N/A   Overcast
5:52 PM 64.9 °F 51.1 °F 61% 29.83 in 10.0 mi Calm Calm - N/A   Overcast
6:52 PM 63.0 °F 51.1 °F 65% 29.83 in 10.0 mi ESE 9.2 mph - N/A   Overcast
7:52 PM 62.1 °F 51.1 °F 67% 29.83 in 10.0 mi ESE 4.6 mph - N/A   Overcast
8:52 PM 57.9 °F 51.1 °F 78% 29.84 in 9.0 mi ESE 4.6 mph - N/A   Scattered Clouds
9:52 PM 55.0 °F 50.0 °F 83% 29.86 in 7.0 mi SE 6.9 mph - N/A   Clear
10:52 PM 53.1 °F 50.0 °F 89% 29.86 in 6.0 mi South 3.5 mph - N/A   Clear
11:52 PM 51.1 °F 48.9 °F 92% 29.86 in 6.0 mi South 4.6 mph - N/A   Clear